Regional Weather Roundup
Issued by NWS

Home | Current Version | Previous Version | Graphics & Text | Print | Product List | Glossary On
Versions: 1 2 3 4 5 6 7 8 9 10 11 12 13 14 15 16 17 18 19 20 21 22 23 24 25 26 27 28 29 30 31 32 33 34 35 36 37 38 39 40 41 42 43 44 45 46 47 48 49 50
000
ASUS43 KDMX 260401
RWRIA

WEATHER ROUNDUP FOR IOWA
NATIONAL WEATHER SERVICE DES MOINES IA
1000 PM CST SAT FEB 25 2017

NOTE: "FAIR" INDICATES FEW OR NO CLOUDS BELOW 12,000 FEET WITH NO
SIGNIFICANT WEATHER AND/OR OBSTRUCTIONS TO VISIBILITY.

* - THESE STATIONS ARE NOT NWS STATIONS...THUS NOT UNDER NWS
QUALITY CONTROL.  THEY ALSO DO NOT REPORT WEATHER SUCH
AS PRECIPITATION OR FOG.

IAZ001>003-012>014-020>022-031>034-043>046-260500-
   NORTHWEST IOWA

CITY           SKY/WX    TMP DP  RH WIND       PRES   REMARKS
CARROLL *      MOCLDY    25  21  86 S7        29.90F WCI  17
CHEROKEE *     CLEAR     18  12  77 S3        29.87S
DENISON *      CLEAR     25  19  80 S10       29.87F WCI  15
LE MARS *      CLEAR     21  16  79 S9        29.86F WCI  11
SHELDON *      CLEAR     19  19 100 S8        29.82F WCI   9
SIOUX CITY     CLOUDY    20  14  77 E5        29.87F WCI  13
SPENCER        CLEAR     15  11  83 S7        29.85F WCI   5
STORM LAKE *   CLEAR     16  12  86 S12       29.86F WCI   3
$$

IAZ055>058-069>071-079>083-090>094-260500-
   SOUTHWEST IOWA

CITY           SKY/WX    TMP DP  RH WIND       PRES   REMARKS
ATLANTIC *     CLEAR     28  21  74 S9        29.92F WCI  20
AUDUBON *      CLEAR     28  21  74 S7        29.91F WCI  21
CLARINDA *     CLOUDY    32  23  69 S6        29.98S WCI  26
COUNCIL BLFS * MOCLDY    30  21  69 S10       29.90F WCI  21
CRESTON *      CLOUDY    30  19  64 S10       29.96F WCI  21
HARLAN  *      CLEAR     27  21  80 S9        29.93F WCI  17
LAMONI         CLOUDY    30  17  58 S9        29.98F WCI  22
RED OAK *      CLOUDY    32  23  69 S8        29.94F WCI  25
SHENANDOAH *   CLOUDY    34  23  64 S14       29.95F WCI  24
$$

IAZ047>049-059>061-072>074-084-260500-
   CENTRAL IOWA

CITY           SKY/WX    TMP DP  RH WIND       PRES   REMARKS
AMES           CLOUDY    26  22  84 SE8       29.95F WCI  18
ANKENY *       CLOUDY    30  21  69 S8        29.98F WCI  23
BOONE *        CLOUDY    27  23  86 S9        29.92F WCI  17
CHARITON *     CLOUDY    28  19  69 S8        29.99F WCI  20
DES MOINES     CLOUDY    30  20  66 S10       29.97F WCI  21
GRINNELL*      MOCLDY    26  20  76 S8        30.00F WCI  18
KNOXVILLE *    CLOUDY    28  18  64 S7        29.99F WCI  21
MARSHALLTOWN   PTCLDY    24  19  81 SE7       29.97F WCI  16
NEWTON *       CLOUDY    27  21  80 S8        29.98F WCI  18
PELLA *        CLEAR     29  20  68 S6        30.02F WCI  23
PERRY *        CLOUDY    28  23  81 S10       29.93F WCI  19
$$

IAZ004>006-015-016-023>025-035-036-260500-
   NORTH CENTRAL IOWA

CITY           SKY/WX    TMP DP  RH WIND       PRES   REMARKS
ALGONA *       FLURRIES  23  18  80 S14       29.87F WCI  11
CLARION *      CLOUDY    23  19  86 S13       29.90F WCI  11
ESTHERVILLE    MOCLDY    17  13  84 S13       29.85F WCI   4
FORT DODGE *   CLOUDY    27  18  69 S10       29.91F WCI  17
MASON CITY     CLOUDY    18  12  77 S12       29.92F WCI   5
FOREST CITY *    N/A     19  16  86 S10       29.89F WCI   8
WEBSTER CITY * CLOUDY    25  19  80 S13       29.90F WCI  13
IOWA FALLS *   CLOUDY    24  19  82 S8        29.95F WCI  14
$$

IAZ007>011-017>019-026>030-037>042-050>054-066-260500-
   NORTHEAST IOWA

CITY           SKY/WX    TMP DP  RH WIND       PRES   REMARKS
CEDAR RAPIDS   CLOUDY    24  18  77 S5        30.01S WCI  18
CHARLES CITY * CLOUDY    21  16  79 S10       29.95F WCI  10
CLINTON *      CLOUDY    22  18  85 SW6       30.06S WCI  14
DECORAH *      CLOUDY    21  16  79 S7        29.94F WCI  13
DUBUQUE        CLOUDY    20  16  84 S5        30.00F WCI  13
MONTICELLO *   CLOUDY    25  19  80 S6        30.02S WCI  18
OELWEIN *      MOCLDY    23  19  86 S8        29.98F WCI  14
WATERLOO       MOCLDY    24  16  71 S7        29.98F WCI  16
$$

IAZ064-065-067-068-078-260500-
   EAST CENTRAL IOWA

CITY           SKY/WX    TMP DP  RH WIND       PRES   REMARKS
DAVENPORT      CLOUDY    25  19  78 SW7       30.06S WCI  17
IOWA CITY      CLOUDY    26  18  71 S5        30.06S WCI  20
MUSCATINE *    CLOUDY    28  21  74 S5        30.08R WCI  23
QUAD CITIES    CLOUDY    27  18  69 SW3       30.06S
$$

IAZ062-063-075>077-085>089-095>099-260500-
   SOUTHEAST IOWA

CITY           SKY/WX    TMP DP  RH WIND       PRES   REMARKS
BURLINGTON     MOCLDY    26  18  71 CALM      30.07S
FAIRFIELD *    CLOUDY    27  16  63 S6        30.04F WCI  20
KEOKUK *       CLOUDY    27  16  63 CALM      30.08R
CENTERVILLE *  CLOUDY    27  19  74 CALM      30.03F
OTTUMWA        CLOUDY    29  19  66 S8        30.02F WCI  21
WASHINGTON *   CLOUDY    25  21  86 S7        30.06F WCI  17
$$

ABBREVIATIONS USED IN REMARKS
   TC - TEMPERATURES IN CELSIUS
  WCI - WIND CHILL INDEX
   HX - HEAT INDEX
  VSB - VISIBILITY
$$





USA.gov is the U.S. government's official web portal to all federal, state and local government web resources and services.